CW2751 Weather Reports


Display with metric or nautical units.
time (UTC)temp
F
wind
direction
speed
MPH
gust
MPH
rain 1hr
in
rain 24hr
in
rain mn
in
humidity
%
barometer
mb
20260510111519 48 326 1.0 0.0 0.00 0.00 0.00 89 1014.2
20260510110044 48 319 2.0 0.0 0.00 0.00 0.00 89 1014.1
20260510104602 48 262 3.0 0.0 0.00 0.00 0.00 89 1014.1
20260510103052 48 299 2.0 0.0 0.00 0.00 0.00 89 1014.1
20260510101554 49 326 3.0 0.0 0.00 0.00 0.00 89 1013.9
20260510100106 49 310 4.0 0.0 0.00 0.00 0.00 89 1013.1
20260510100001 49 354 5.0 0.0 0.00 0.00 0.00 89 1013.1
20260510094508 49 326 3.0 0.0 0.00 0.00 0.00 89 1012.7
20260510093016 49 358 2.0 0.0 0.00 0.00 0.00 89 1012.4
20260510091539 49 17 2.0 0.0 0.00 0.00 0.00 89 1012.0
20260510090033 49 17 2.0 0.0 0.00 0.00 0.00 89 1012.0
20260510084539 49 11 1.0 0.0 0.00 0.00 0.00 88 1011.9
20260510083038 49 35 1.0 0.0 0.00 0.00 0.00 88 1011.4
20260510081546 49 37 5.0 0.0 0.00 0.00 0.00 88 1011.5
20260510080057 50 51 6.0 0.0 0.00 0.00 0.00 87 1011.7
20260510074556 50 55 6.0 0.0 0.00 0.00 0.00 87 1011.3
20260510073037 51 62 4.0 0.0 0.00 0.00 0.00 87 1011.2
20260510071540 50 226 1.0 0.0 0.00 0.00 0.00 86 1012.0
20260510070107 50 254 2.0 0.0 0.00 0.00 0.00 86 1012.4
20260510070001 50 292 2.0 0.0 0.00 0.00 0.00 86 1012.4
20260510064512 50 75 1.0 0.0 0.00 0.00 0.00 86 1011.8
20260510063017 50 49 3.0 0.0 0.00 0.00 0.00 85 1011.3
20260510061555 50 78 7.0 0.0 0.00 0.00 0.00 85 1010.7
20260510060059 50 104 9.0 0.0 0.00 0.00 0.00 86 1010.4
20260510054507 51 92 9.0 0.0 0.00 0.00 0.00 86 1010.4
20260510053032 51 89 7.0 0.0 0.00 0.00 0.00 86 1010.6
20260510051544 51 75 9.0 0.0 0.00 0.00 0.00 85 1010.6
20260510050044 51 63 13.0 0.0 0.00 0.00 0.00 84 1010.5
20260510044614 52 39 9.0 0.0 0.00 0.00 0.00 82 1010.6
20260510044505 52 44 9.0 0.0 0.00 0.00 0.00 82 1010.6
20260510043010 53 25 10.0 0.0 0.00 0.00 0.00 80 1010.7
20260510041526 55 48 11.0 0.0 0.00 0.00 0.00 75 1010.8
20260510040047 58 344 12.0 0.0 0.00 0.00 0.00 65 1011.5
20260510034516 59 323 10.0 0.0 0.00 0.00 0.00 53 1011.2
20260510033020 59 25 15.0 0.0 0.00 0.00 0.00 50 1009.1
20260510031536 58 27 15.0 0.0 0.00 0.00 0.00 52 1006.7
20260510030038 59 41 9.0 0.0 0.00 0.00 0.00 52 1006.6
20260510024549 59 39 10.0 0.0 0.00 0.00 0.00 53 1005.6
20260510023046 59 65 8.0 0.0 0.00 0.00 0.00 52 1004.8
20260510021552 60 42 8.0 0.0 0.00 0.00 0.00 52 1004.7
20260510020100 62 69 6.0 0.0 0.00 0.00 0.00 52 1005.2
20260510020003 62 66 6.0 0.0 0.00 0.00 0.00 52 1004.8
20260510014509 63 63 8.0 0.0 0.00 0.00 0.00 48 1004.8
20260510013018 65 72 8.0 0.0 0.00 0.00 0.00 46 1004.4
20260510011541 66 86 9.0 0.0 0.00 0.00 0.00 45 1003.5
20260510010058 68 61 7.0 0.0 0.00 0.00 0.00 46 1003.0
20260510004526 69 94 7.0 0.0 0.00 0.00 0.00 41 1002.5
20260510003055 69 87 15.0 0.0 0.00 0.00 0.00 39 1002.3
20260510001507 76 68 16.0 0.0 0.00 0.00 0.00 28 1001.5
20260510000011 77 76 11.0 0.0 0.00 0.00 0.00 27 1001.5
20260509234526 78 46 12.0 0.0 0.00 0.00 0.00 26 1001.0
20260509233030 79 72 8.0 0.0 0.00 0.00 0.00 24 1000.6
20260509231607 79 34 8.0 0.0 0.00 0.00 0.00 23 1000.5
20260509230023 79 35 8.0 0.0 0.00 0.00 0.00 24 1000.9
20260509224535 79 39 7.0 0.0 0.00 0.00 0.00 24 1000.8
20260509223048 79 20 10.0 0.0 0.00 0.00 0.00 23 1000.9
20260509221558 80 32 9.0 0.0 0.00 0.00 0.00 23 1000.7
20260509220016 79 337 9.0 0.0 0.00 0.00 0.00 24 1000.6
20260509214515 80 326 9.0 0.0 0.00 0.00 0.00 24 1000.6
20260509213059 80 11 10.0 0.0 0.00 0.00 0.00 26 1000.7
20260509213001 80 326 11.0 0.0 0.00 0.00 0.00 26 1000.8
20260509211534 80 342 10.0 0.0 0.00 0.00 0.00 26 1000.8
20260509210057 80 323 9.0 0.0 0.00 0.00 0.00 25 1000.7
20260509204551 79 327 11.0 0.0 0.00 0.00 0.00 26 1000.8
20260509203059 79 0 9.0 0.0 0.00 0.00 0.00 26 1000.8
20260509201505 79 10 10.0 0.0 0.00 0.00 0.00 26 1000.5
20260509200015 79 336 10.0 0.0 0.00 0.00 0.00 26 1000.5
20260509194549 78 351 9.0 0.0 0.00 0.00 0.00 26 1000.5
20260509193055 78 325 10.0 0.0 0.00 0.00 0.00 27 1000.4
20260509191557 78 305 9.0 0.0 0.00 0.00 0.00 26 1000.3
20260509190111 79 326 8.0 0.0 0.00 0.00 0.00 25 1000.1
20260509190007 79 316 8.0 0.0 0.00 0.00 0.00 25 999.9
20260509184635 79 309 8.0 0.0 0.00 0.00 0.00 24 999.9
20260509183046 78 277 8.0 0.0 0.00 0.00 0.00 23 1000.2
20260509181556 77 326 8.0 0.0 0.00 0.00 0.00 24 1000.1
20260509180104 78 289 7.0 0.0 0.00 0.00 0.00 25 1000.0
20260509180001 78 319 8.0 0.0 0.00 0.00 0.00 25 1000.2
20260509174523 77 323 7.0 0.0 0.00 0.00 0.00 25 1000.2
20260509173017 77 277 8.0 0.0 0.00 0.00 0.00 24 1000.4
20260509171529 76 260 9.0 0.0 0.00 0.00 0.00 24 1000.5
20260509170025 76 288 7.0 0.0 0.00 0.00 0.00 26 1000.5
20260509164521 74 254 7.0 0.0 0.00 0.00 0.00 28 1000.5
20260509163051 73 226 9.0 0.0 0.00 0.00 0.00 29 1000.8
20260509161552 72 216 10.0 0.0 0.00 0.00 0.00 30 1000.9
20260509160010 72 199 10.0 0.0 0.00 0.00 0.00 30 1000.8
20260509154540 70 214 10.0 0.0 0.00 0.00 0.00 31 1001.2
20260509153046 69 251 11.0 0.0 0.00 0.00 0.00 32 1001.4
20260509151508 67 209 11.0 0.0 0.00 0.00 0.00 38 1001.8
20260509150015 65 175 11.0 0.0 0.00 0.00 0.00 38 1001.9
20260509144535 64 234 10.0 0.0 0.00 0.00 0.00 40 1001.9
20260509143049 63 200 9.0 0.0 0.00 0.00 0.00 42 1002.6
20260509141548 61 206 7.0 0.0 0.00 0.00 0.00 47 1003.0
20260509140052 60 196 10.0 0.0 0.00 0.00 0.00 47 1002.5
20260509134554 59 190 10.0 0.0 0.00 0.00 0.00 48 1002.7
20260509133106 59 223 8.0 0.0 0.00 0.00 0.00 49 1002.9
20260509133002 58 258 8.0 0.0 0.00 0.00 0.00 49 1002.8
20260509131534 58 241 10.0 0.0 0.00 0.00 0.00 48 1002.8
20260509130035 57 198 7.0 0.0 0.00 0.00 0.00 51 1002.3
20260509124547 57 198 9.0 0.0 0.00 0.00 0.00 51 1002.3
20260509123046 56 176 8.0 0.0 0.00 0.00 0.00 52 1002.4
20260509121559 56 210 8.0 0.0 0.00 0.00 0.00 52 1002.3
20260509120017 56 195 8.0 0.0 0.00 0.00 0.00 52 1001.9
20260509114556 56 190 8.0 0.0 0.00 0.00 0.00 53 1001.6
20260509113014 55 248 8.0 0.0 0.00 0.00 0.00 55 1001.5